Location: Saint-Palais-sur-Mer
(45.6429°N, 1.0859°W)
Time: 23:38:00
(UTC+01:00)

Tiros 1 despin weight - Pass Details

Date: 17 February 2026
Orbit: 556 x 593 km, 48.2° (Epoch: 13 March)

Event Time Altitude Azimuth Distance (km) Brightness Sun altitude
Rises 23:05:50 0° 280° (W) 2,738 - -45.9°
Reaches altitude 10° 23:09:08 10° 253° (WSW) 1,843 - -46.4°
Maximum altitude 23:11:06 13° 225° (SW) 1,655 - -46.6°
Drops below altitude 10° 23:13:04 10° 197° (SSW) 1,846 - -46.9°
Sets 23:16:24 0° 169° (S) 2,746 - -47.3°
